sat.trackr.live / text

‹ back to catalog

STARLINK-3746

NORAD 52268 · 2022-041H

PAYLOAD ACTIVE UNKNOWN

§ Identity

Operator
Country
US
Launch date
2022-04-21
Launch site
AFETR
Launch vehicle
Mass (kg)
RCS (m²)

Purposes: comms

External: N2YO · Heavens-Above · Gunter

§ Orbital elements

Epoch: 2026-09-19T17:41:32.837568Z

Period
93.85 min
Inclination
53.1618°
Eccentricity
0.0001338
Mean motion
15.34384099 rev/d
Perigee alt
461.8 km
Apogee alt
463.7 km
Semi-major
6,840.9 km
B*
-2.8619e-6
RAAN
302.9876°
Arg perigee
83.6721°
Mean anomaly
276.4434°
Rev number
24,386

§ Raw data

STARLINK-37461 52268U 22041H   26262.73718562 -.00000473  00000+0 -28619-5 0  99952 52268  53.1618 302.9876 0001338  83.6721 276.4434 15.34384099243865

JSON: /api/v1/satellites/52268 · /tle

For live sub-satellite position, see the globe view (requires WebGL).

§ Visibility from observer

Set your observer location to see the next 7 days of passes ≥ 10°. The values pass through the URL so the page stays shareable.

No JS? Fill the form by hand. The geolocation button needs JavaScript.